User: anonymous   Login
Location: Lac de la Montange Noire
(46.1952°N, 74.2701°W)
Time: 18:42:54
(UTC-05:00)
Language:

Iridium 42 - Orbit

View from above orbital plane
View from above orbital plane
View from above satellite
View from above satellite

Ground track
Ground track

The orbit data is extracted from the following two-line orbital elements,

1 25077U 97077A   18055.21050733  .00000126  00000-0  37580-4 0  9997
2 25077  86.3938 276.5095 0002044 103.6747 256.4677 14.34514870 58324
Epoch (UTC): 24 February 2018 05:03:07
Eccentricity: 0.0002044
inclination: 86.3938°
perigee height: 775 km
apogee height: 778 km
right ascension of ascending node: 276.5095°
argument of perigee: 103.6747°
revolutions per day: 14.34514870
mean anomaly at epoch: 256.4677°
orbit number at epoch: 5832

The dashed part of the orbit path shows where the satellite is in the earth's shadow,  

DLR